Weather History for KVRB - October, 2011

Change the Weather History Date:

Tuesday, October 25, 2011

  Actual Average Record
Temperature  
Mean Temperature 70 °F 75 °F  
Max Temperature 81 °F 83 °F 92 °F (1997)
Min Temperature 59 °F 67 °F 48 °F (2005)
Degree Days  
Heating Degree Days 0 0  
Month to date heating degree days 3 0  
Since 1 July heating degree days 3 0  
Cooling Degree Days 5 10  
Month to date cooling degree days 253 306  
Year to date cooling degree days 3289 3073  
Growing Degree Days 20 (Base 50)    
Moisture  
Dew Point 59 °F    
Average Humidity 70    
Maximum Humidity 90    
Minimum Humidity 49    
Precipitation  
Precipitation 0.00 in 0.12 in 4.26 in (1964)
Month to date precipitation 17.35 4.23  
Year to date precipitation 53.93 45.72  
Sea Level Pressure  
Sea Level Pressure 30.10 in    
Wind  
Wind Speed 10 mph (NE)    
Max Wind Speed 17 mph    
Max Gust Speed 23 mph    
Visibility 10 miles    
Events      
T = Trace of Precipitation, MM = Missing Value Source: NWS Daily Summary

Daily Weather History Graph

Daily Weather History Graph

Search for Another Location

Airport or City:

Trip Planner

Search our weather history database for the weather conditions in past years. The results will help you decide how hot, cold, wet, or windy it might be!

Date:

Astronomy

Oct. 25, 2011 Rise Set
Actual Time 7:27 AM EDT 6:43 PM EDT
Civil Twilight 7:03 AM EDT 7:07 PM EDT
Nautical Twilight 6:36 AM EDT 7:34 PM EDT
Astronomical Twilight 6:09 AM EDT 8:02 PM EDT
Moon 6:01 AM EDT (10/25) 5:43 PM EDT (10/25)
Length of Visible Light 12h 03m
Length of Day
11h 15m
Waning Crescent, 2% of the Moon is Illuminated
Oct 25
Waning Crescent
Oct 26
New
Nov 2
First Quarter
Nov 10
Full
Nov 18
Last Quarter

Hourly Weather History & Observations

Time (EDT) Temp. Heat Index Dew Point Humidity Pressure Visibility Wind Dir Wind Speed Gust Speed Precip Events Conditions
12:53 AM 66.9 °F - 55.9 °F 68% 30.11 in 10.0 mi North 5.8 mph - N/A   Clear
1:53 AM 60.1 °F - 55.9 °F 86% 30.10 in 10.0 mi West 4.6 mph - N/A   Clear
2:53 AM 59.0 °F - 55.4 °F 88% 30.09 in 10.0 mi West 3.5 mph - N/A   Clear
3:53 AM 61.0 °F - 57.0 °F 87% 30.07 in 10.0 mi NW 5.8 mph - N/A   Clear
4:53 AM 62.1 °F - 57.0 °F 84% 30.06 in 10.0 mi NW 6.9 mph - N/A   Partly Cloudy
5:53 AM 62.1 °F - 57.9 °F 86% 30.06 in 10.0 mi NNW 5.8 mph - N/A   Clear
6:53 AM 71.1 °F - 57.9 °F 63% 30.08 in 10.0 mi NNE 6.9 mph - N/A   Clear
7:53 AM 71.6 °F - 57.2 °F 60% 30.10 in 10.0 mi NE 9.2 mph - N/A   Clear
8:53 AM 75.9 °F - 59.0 °F 56% 30.12 in 10.0 mi NE 9.2 mph - N/A   Mostly Cloudy
9:53 AM 75.9 °F - 59.0 °F 56% 30.14 in 10.0 mi NE 11.5 mph - N/A   Clear
10:53 AM 79.0 °F - 60.1 °F 52% 30.15 in 10.0 mi ENE 15.0 mph 21.9 mph N/A   Partly Cloudy
11:53 AM 80.1 °F 80.7 °F 59.0 °F 48% 30.16 in 10.0 mi ENE 13.8 mph - N/A   Partly Cloudy
12:53 PM 80.1 °F 80.9 °F 60.1 °F 50% 30.14 in 10.0 mi ENE 13.8 mph - N/A   Clear
1:53 PM 80.1 °F 81.1 °F 61.0 °F 52% 30.11 in 10.0 mi NE 13.8 mph 20.7 mph N/A   Clear
2:53 PM 79.0 °F - 60.1 °F 52% 30.10 in 10.0 mi NE 15.0 mph - N/A   Partly Cloudy
3:53 PM 80.6 °F 81.5 °F 60.8 °F 51% 30.09 in 10.0 mi NE 13.8 mph 23.0 mph N/A   Partly Cloudy
4:53 PM 79.0 °F - 59.0 °F 50% 30.09 in 10.0 mi ENE 13.8 mph - N/A   Scattered Clouds
5:53 PM 78.1 °F - 61.0 °F 56% 30.09 in 10.0 mi ENE 12.7 mph - N/A   Mostly Cloudy
6:53 PM 75.9 °F - 60.1 °F 58% 30.09 in 10.0 mi ENE 8.1 mph - N/A   Partly Cloudy
7:53 PM 77.0 °F - 60.1 °F 56% 30.09 in 10.0 mi East 12.7 mph - N/A   Mostly Cloudy
8:53 PM 75.2 °F - 57.2 °F 53% 30.11 in 10.0 mi East 10.4 mph - N/A   Partly Cloudy
9:53 PM 73.9 °F - 57.9 °F 57% 30.11 in 10.0 mi East 6.9 mph - N/A   Clear
10:53 PM 73.0 °F - 59.0 °F 61% 30.11 in 10.0 mi East 5.8 mph - N/A   Partly Cloudy
11:53 PM 75.9 °F - 62.1 °F 62% 30.09 in 10.0 mi East 10.4 mph - N/A   Mostly Cloudy